TimeCST,TemperatureF,Dew PointF,Humidity,Sea Level PressureIn,VisibilityMPH,Wind Direction,Wind SpeedMPH,Gust SpeedMPH,PrecipitationIn,Events,Conditions,WindDirDegrees,DateUTC
12:05 AM,30.2,28.4,93,29.57,1.0,SSE,5.8,-,0.00,Snow,Light Snow,150,2013-02-14 06:05:00
12:17 AM,30.2,28.4,93,29.57,1.2,SE,5.8,-,0.00,Snow,Light Snow,130,2013-02-14 06:17:00
12:23 AM,30.2,28.4,93,29.56,1.0,SE,6.9,-,0.00,Snow,Light Snow,130,2013-02-14 06:23:00
12:30 AM,30.2,28.4,93,29.56,1.2,ESE,5.8,-,0.00,Snow,Light Snow,120,2013-02-14 06:30:00
12:40 AM,30.2,28.4,93,29.56,1.2,ESE,5.8,-,0.00,Snow,Light Snow,120,2013-02-14 06:40:00
12:52 AM,30.2,28.4,93,29.55,1.2,ESE,5.8,-,0.00,Snow,Light Snow,110,2013-02-14 06:52:00
12:54 AM,30.0,28.9,96,29.60,1.2,ESE,5.8,-,0.00,Snow,Light Snow,110,2013-02-14 06:54:00
12:59 AM,30.2,28.4,93,29.55,1.0,ESE,5.8,-,0.00,Snow,Light Snow,110,2013-02-14 06:59:00
1:17 AM,30.2,28.4,93,29.54,0.8,ESE,6.9,-,0.01,Snow,Light Snow,110,2013-02-14 07:17:00
1:35 AM,30.2,28.4,93,29.54,0.8,East,5.8,-,0.02,Snow,Light Snow,100,2013-02-14 07:35:00
1:54 AM,30.0,28.9,96,29.59,0.8,East,4.6,-,0.04,Snow,Light Snow,100,2013-02-14 07:54:00
2:17 AM,30.2,28.4,93,29.53,0.8,East,4.6,-,0.01,Snow,Light Snow,90,2013-02-14 08:17:00
2:44 AM,30.2,28.4,93,29.53,1.0,East,5.8,-,0.02,Snow,Light Snow,80,2013-02-14 08:44:00
2:54 AM,30.0,28.0,92,29.57,1.0,East,5.8,-,0.02,Snow,Light Snow,80,2013-02-14 08:54:00
3:25 AM,30.2,28.4,93,29.52,1.5,ENE,6.9,-,0.01,Snow,Light Snow,60,2013-02-14 09:25:00
3:43 AM,30.2,28.4,93,29.52,2.0,NE,8.1,-,0.01,Snow,Light Snow,50,2013-02-14 09:43:00
3:54 AM,30.0,28.0,92,29.56,2.5,NE,5.8,-,0.01,Snow,Light Snow,50,2013-02-14 09:54:00
4:07 AM,30.2,28.4,93,29.52,3.0,NE,9.2,-,0.00,Snow,Light Snow,40,2013-02-14 10:07:00
4:54 AM,30.0,28.0,92,29.58,4.0,NNE,9.2,-,0.00,Snow,Light Snow,30,2013-02-14 10:54:00
5:07 AM,30.2,28.4,93,29.54,2.5,NNE,9.2,-,0.00,Snow,Light Snow,20,2013-02-14 11:07:00
5:22 AM,30.2,28.4,93,29.55,1.5,NNE,9.2,-,0.00,Snow,Light Snow,20,2013-02-14 11:22:00
5:44 AM,30.2,28.4,93,29.56,2.0,North,9.2,-,0.00,Snow,Light Snow,10,2013-02-14 11:44:00
6:12 AM,30.2,28.4,93,29.57,1.0,North,11.5,-,0.00,Snow,Light Snow,360,2013-02-14 12:12:00
6:43 AM,28.4,26.6,93,29.59,1.2,North,12.7,23.0,0.00,Snow,Light Snow,360,2013-02-14 12:43:00
6:50 AM,28.4,26.6,93,29.59,1.2,North,18.4,24.2,0.00,Snow,Light Snow,350,2013-02-14 12:50:00
6:54 AM,28.0,26.1,92,29.64,1.2,North,18.4,24.2,0.00,Snow,Light Snow,350,2013-02-14 12:54:00
7:05 AM,26.6,24.8,93,29.61,1.0,North,17.3,27.6,0.00,Snow,Light Snow,350,2013-02-14 13:05:00
7:15 AM,26.6,24.8,93,29.61,0.8,North,19.6,26.5,0.00,Snow,Light Snow,350,2013-02-14 13:15:00
7:54 AM,27.0,24.1,89,29.69,1.0,North,11.5,-,0.00,Snow,Light Snow,360,2013-02-14 13:54:00
8:04 AM,26.6,23.0,86,29.65,1.2,North,10.4,21.9,0.00,Snow,Light Snow,360,2013-02-14 14:04:00
8:16 AM,26.6,23.0,86,29.65,2.0,North,15.0,23.0,0.00,Snow,Light Snow,10,2013-02-14 14:16:00
8:48 AM,26.6,23.0,86,29.67,1.8,North,13.8,-,0.00,Snow,Light Snow,350,2013-02-14 14:48:00
8:54 AM,27.0,23.0,85,29.72,1.5,NNW,15.0,-,0.00,Snow,Light Snow,340,2013-02-14 14:54:00
9:19 AM,26.6,23.0,86,29.68,2.0,NNW,15.0,-,0.00,Snow,Light Snow,340,2013-02-14 15:19:00
9:30 AM,26.6,23.0,86,29.68,3.0,NNW,16.1,-,0.00,Snow,Light Snow,340,2013-02-14 15:30:00
9:54 AM,27.0,21.9,81,29.74,6.0,NNW,15.0,-,0.00,,Haze,330,2013-02-14 15:54:00
10:54 AM,28.9,21.9,75,29.76,10.0,NW,15.0,-,N/A,,Overcast,320,2013-02-14 16:54:00
11:54 AM,28.0,21.9,78,29.78,10.0,NW,15.0,-,N/A,,Overcast,320,2013-02-14 17:54:00
12:19 PM,28.4,23.0,80,29.73,1.8,NNW,16.1,-,0.00,Snow,Light Snow,330,2013-02-14 18:19:00
12:32 PM,28.4,24.8,86,29.73,1.2,NW,13.8,-,0.00,Snow,Light Snow,320,2013-02-14 18:32:00
12:43 PM,28.4,24.8,86,29.74,2.5,NW,17.3,-,0.00,Snow,Light Snow,320,2013-02-14 18:43:00
12:54 PM,28.9,23.0,78,29.79,3.0,NW,15.0,-,0.00,Snow,Light Snow,320,2013-02-14 18:54:00
1:54 PM,28.9,21.9,75,29.81,9.0,NNW,16.1,-,0.00,Snow,Light Snow,330,2013-02-14 19:54:00
2:54 PM,30.0,19.0,64,29.83,10.0,NW,13.8,-,N/A,,Overcast,310,2013-02-14 20:54:00
3:54 PM,30.0,18.0,61,29.86,10.0,NW,13.8,-,N/A,,Overcast,310,2013-02-14 21:54:00
4:54 PM,28.9,19.0,67,29.89,10.0,WNW,9.2,-,N/A,,Overcast,300,2013-02-14 22:54:00
5:54 PM,27.0,19.0,72,29.92,10.0,NW,19.6,-,0.00,,Scattered Clouds,320,2013-02-14 23:54:00
6:38 PM,24.8,19.4,80,29.90,10.0,North,15.0,-,N/A,,Overcast,350,2013-02-15 00:38:00
6:54 PM,24.1,18.0,77,29.97,10.0,North,13.8,19.6,N/A,,Overcast,360,2013-02-15 00:54:00
7:54 PM,23.0,16.0,74,29.99,10.0,NNW,16.1,23.0,0.00,,Overcast,340,2013-02-15 01:54:00
8:26 PM,21.2,14.0,74,29.94,10.0,North,10.4,17.3,N/A,,Mostly Cloudy,360,2013-02-15 02:26:00
8:54 PM,21.0,14.0,74,30.03,10.0,NNW,16.1,24.2,N/A,,Overcast,340,2013-02-15 02:54:00
9:12 PM,19.4,10.4,68,29.98,10.0,North,15.0,-,N/A,,Overcast,350,2013-02-15 03:12:00
9:54 PM,17.1,7.0,65,30.06,10.0,North,16.1,23.0,0.00,,Scattered Clouds,360,2013-02-15 03:54:00
10:54 PM,14.0,5.0,67,30.08,10.0,NNW,9.2,-,N/A,,Partly Cloudy,340,2013-02-15 04:54:00
11:54 PM,10.9,3.9,73,30.09,10.0,NW,9.2,-,N/A,,Partly Cloudy,310,2013-02-15 05:54:00